Location: Praha
(50.0830°N, 14.4670°E)
Time: 22:46:35
(UTC+01:00)

ISS - Pass Details

Date: 05 November 2019
Orbit: 412 x 421 km, 51.6° (Epoch: 15 November)

Event Time Altitude Azimuth Distance (km) Brightness Sun altitude
Exits shadow 05:45:53 20° 286° (WNW) 1,046 -2.4 -11.9°
Maximum altitude 05:48:07 87° 12° (NNE) 427 -3.8 -11.5°
Drops below altitude 10° 05:51:30 10° 105° (ESE) 1,502 0.6 -11.0°
Sets 05:53:36 0° 105° (ESE) 2,363 2.3 -10.7°
